Weather History for KSVN - March, 2013

Change the Weather History Date:

Monday, March 11, 2013

  Actual Average Record
Temperature  
Mean Temperature 60 °F -  
Max Temperature 71 °F 67 °F 84 °F (2009)
Min Temperature 50 °F 47 °F 30 °F (1998)
Degree Days  
Heating Degree Days 5    
Growing Degree Days 10 (Base 50)    
Moisture  
Dew Point 54 °F    
Average Humidity 81    
Maximum Humidity 100    
Minimum Humidity 58    
Precipitation  
Precipitation 0.00 in - - ()
Sea Level Pressure  
Sea Level Pressure 30.04 in    
Wind  
Wind Speed 6 mph (ESE)    
Max Wind Speed 12 mph    
Max Gust Speed 18 mph    
Visibility 10 miles    
Events      
Averages and records for this station are not official NWS values.
T = Trace of Precipitation, MM = Missing Value Source: NWS Daily Summary

Daily Weather History Graph

Daily Weather History Graph

Search for Another Location

Airport or City:

Trip Planner

Search our weather history database for the weather conditions in past years. The results will help you decide how hot, cold, wet, or windy it might be!

Date:

Astronomy

Mar. 11, 2013 Rise Set
Actual Time 7:39 AM EDT 7:29 PM EDT
Civil Twilight 7:15 AM EDT 7:54 PM EDT
Nautical Twilight 6:46 AM EDT 8:22 PM EDT
Astronomical Twilight 6:18 AM EDT 8:51 PM EDT
Moon 7:14 AM EDT (3/11) 7:37 PM EDT (3/11)
Length of Visible Light 12h 39m
Length of Day
11h 50m
Waning Crescent, 0% of the Moon is Illuminated
Mar 11
Waning Crescent
Mar 11
New
Mar 19
First Quarter
Mar 27
Full
Apr 3
Last Quarter

Hourly Weather History & Observations

Time (EDT) Temp. Dew Point Humidity Pressure Visibility Wind Dir Wind Speed Gust Speed Precip Events Conditions
12:58 AM 53.2 °F 50.4 °F 90% 30.17 in 10.0 mi East 4.6 mph - N/A   Clear
1:58 AM 54.9 °F 52.3 °F 91% 30.15 in 10.0 mi East 6.9 mph - N/A   Clear
2:58 AM 54.5 °F 52.5 °F 93% 30.13 in 10.0 mi East 9.2 mph - N/A   Clear
3:58 AM 53.8 °F 52.0 °F 94% 30.12 in 10.0 mi East 3.5 mph - N/A   Clear
4:58 AM 53.4 °F 51.6 °F 94% 30.10 in 10.0 mi ENE 3.5 mph - N/A   Partly Cloudy
5:53 AM 50.0 °F 50.0 °F 100% 30.08 in 8.0 mi East 3.5 mph - N/A   Clear
5:58 AM 50.2 °F 49.1 °F 96% 30.09 in 7.0 mi East 3.5 mph - N/A   Clear
6:03 AM 50.0 °F 50.0 °F 100% 30.08 in 9.0 mi East 3.5 mph - N/A   Clear
6:33 AM 50.0 °F 50.0 °F 100% 30.08 in 9.0 mi East 4.6 mph - N/A   Clear
6:58 AM 50.4 °F 49.8 °F 98% 30.09 in 9.0 mi East 3.5 mph - N/A   Clear
7:13 AM 50.0 °F 50.0 °F 100% 30.07 in 8.0 mi East 4.6 mph - N/A   Clear
7:37 AM 51.8 °F 51.8 °F 100% 30.07 in 7.0 mi East 5.8 mph - N/A   Clear
7:58 AM 51.1 °F 50.4 °F 97% 30.08 in 10.0 mi East 4.6 mph - N/A   Clear
8:58 AM 56.3 °F 55.2 °F 96% 30.09 in 10.0 mi East 3.5 mph - N/A   Mostly Cloudy
9:58 AM 62.1 °F 55.9 °F 80% 30.09 in 10.0 mi East 4.6 mph - N/A   Mostly Cloudy
10:58 AM 68.4 °F 53.8 °F 60% 30.09 in 10.0 mi SE 8.1 mph - N/A   Mostly Cloudy
11:17 AM 68.0 °F 53.6 °F 60% 30.09 in 10.0 mi SSE 8.1 mph 18.4 mph N/A   Mostly Cloudy
11:58 AM 68.7 °F 53.6 °F 58% 30.09 in 10.0 mi SSE 5.8 mph - N/A   Mostly Cloudy
12:58 PM 69.6 °F 56.1 °F 62% 30.07 in 10.0 mi SSE 11.5 mph - N/A   Partly Cloudy
1:58 PM 70.2 °F 54.7 °F 58% 30.04 in 10.0 mi South 10.4 mph - N/A   Mostly Cloudy
2:58 PM 70.9 °F 55.8 °F 59% 30.00 in 10.0 mi South 8.1 mph - N/A   Mostly Cloudy
3:58 PM 70.9 °F 56.5 °F 60% 29.98 in 10.0 mi SE 10.4 mph - N/A   Scattered Clouds
4:58 PM 69.8 °F 54.5 °F 58% 29.96 in 10.0 mi SE 10.4 mph - N/A   Clear
5:58 PM 68.9 °F 55.2 °F 62% 29.96 in 10.0 mi SSE 9.2 mph 17.3 mph N/A   Clear
6:58 PM 65.8 °F 55.6 °F 69% 29.94 in 10.0 mi SE 6.9 mph - N/A   Partly Cloudy
7:58 PM 65.1 °F 56.1 °F 73% 29.92 in 10.0 mi Variable 5.8 mph - N/A   Clear
8:58 PM 64.8 °F 57.6 °F 77% 29.93 in 10.0 mi South 4.6 mph - N/A   Partly Cloudy
9:58 PM 64.0 °F 58.8 °F 83% 29.90 in 10.0 mi SSE 9.2 mph - N/A   Clear
10:58 PM 64.8 °F 59.4 °F 83% 29.93 in 10.0 mi South 10.4 mph 18.4 mph N/A   Mostly Cloudy
11:58 PM 64.9 °F 59.0 °F 81% 29.91 in 10.0 mi South 11.5 mph 18.4 mph N/A   Clear